Regional Weather Roundup
Issued by NWS

Home | Current Version | Previous Version | Text Only | Print | Product List | Glossary On
Versions: 1 2 3 4 5 6 7 8 9 10 11 12 13 14 15 16 17 18 19 20 21 22 23 24 25 26 27 28 29 30 31 32 33 34 35 36 37 38 39 40 41 42 43 44 45 46 47 48 49 50
000
ASUS43 KFSD 031802
RWRSD

WEATHER ROUNDUP FOR SOUTH DAKOTA
NATIONAL WEATHER SERVICE SIOUX FALLS SD
100 PM CDT SUN MAY 03 2015

NOTE: "FAIR" INDICATES FEW OR NO CLOUDS BELOW 12,000 FEET WITH NO
SIGNIFICANT WEATHER AND/OR OBSTRUCTIONS TO VISIBILITY.


SDZ001>005-009-010-012>017-031900-
NORTHWEST AND NORTH CENTRAL SOUTH DAKOTA

CITY           SKY/WX    TMP DP  RH WIND       PRES   REMARKS
BUFFALO          N/A     54  34  46 N10       30.00R
FAITH            N/A     65  34  31 N20G28    29.99R
MOBRIDGE       PTSUNNY   65  35  33 N16G24    29.93S
$$

SDZ012>016-024>037-041>051-057-063-072>074-031900-
SOUTHWEST AND SOUTH CENTRAL SOUTH DAKOTA

CITY           SKY/WX    TMP DP  RH WIND       PRES   REMARKS
RAPID CTY ARPT SUNNY     67  37  33 N15G23    30.01R
PIERRE         MOSUNNY   73  36  25 NE22G33   29.92R
CUSTER         SUNNY     58  34  40 NE14G23   30.05R
ELLSWORTH AFB  SUNNY     64  36  35 N12G22    30.01R
PHILIP         MOSUNNY   71  37  28 N20G28    29.95R
PINE RIDGE     MOSUNNY   68  37  32 NE20G28   29.97R
WINNER         FAIR      72  36  26 NE30G36   29.89R
$$

SDZ004>011-016>023-039-040-031900-
NORTHEAST SOUTH DAKOTA

CITY           SKY/WX    TMP DP  RH WIND       PRES   REMARKS
ABERDEEN       PTSUNNY   68  35  29 N24G30    29.92R
WATERTOWN      SUNNY     72  39  30 N26G39    29.87R
BROOKINGS      CLOUDY    72  52  49 N20G26    29.84R
SISSETON         N/A     67  39  35 N25G32    29.90R
$$

SDZ017-020-022-023-036>040-048>070-031900-
SOUTHEAST SOUTH DAKOTA

CITY           SKY/WX    TMP DP  RH WIND       PRES   REMARKS
SIOUX FALLS    PTSUNNY   80  55  42 N6        29.78R
HURON          MOSUNNY   74  36  25 NE25G38   29.86R
MITCHELL       MOSUNNY   77  52  41 NE25G35   29.82R
YANKTON        MOSUNNY   77  55  47 N9        29.74S
$$

ABBREVIATIONS USED IN REMARKS
   TC - TEMPERATURE IN CELSIUS
  WCI - WIND CHILL INDEX
   HX - HEAT INDEX
  VSB - VISIBILITY




USA.gov is the U.S. government's official web portal to all federal, state and local government web resources and services.